Time,TemperatureF,DewpointF,PressureIn,WindDirection,WindDirectionDegrees,WindSpeedMPH,WindSpeedGustMPH,Humidity,HourlyPrecipIn,Conditions,Clouds,dailyrainin,SoftwareType,DateUTC
2013-05-29 00:01:00,63.0,10.0,-100.00,WNW,289,5.0,14.0,12,0.00,,,0.00,,2013-05-29 06:01:00,
2013-05-29 00:12:00,63.0,10.0,-100.00,WNW,289,5.0,14.0,12,0.00,,,0.00,,2013-05-29 06:12:00,
2013-05-29 00:21:00,63.0,10.0,-100.00,WNW,289,5.0,14.0,12,0.00,,,0.00,,2013-05-29 06:21:00,
2013-05-29 00:32:00,63.0,10.0,-100.00,WNW,289,5.0,14.0,12,0.00,,,0.00,,2013-05-29 06:32:00,
2013-05-29 00:40:00,63.0,15.0,-100.00,West,274,8.0,15.0,15,0.00,,,0.00,,2013-05-29 06:40:00,
2013-05-29 01:01:00,63.0,15.0,-100.00,West,274,8.0,15.0,15,0.00,,,0.00,,2013-05-29 07:01:00,
2013-05-29 01:11:00,63.0,15.0,-100.00,West,274,8.0,15.0,15,0.00,,,0.00,,2013-05-29 07:11:00,
2013-05-29 01:21:00,63.0,15.0,-100.00,West,274,8.0,15.0,15,0.00,,,0.00,,2013-05-29 07:21:00,
2013-05-29 01:34:00,63.0,15.0,-100.00,West,274,8.0,15.0,15,0.00,,,0.00,,2013-05-29 07:34:00,
2013-05-29 01:40:00,61.0,20.0,-100.00,WNW,293,6.0,15.0,20,0.00,,,0.00,,2013-05-29 07:40:00,
2013-05-29 02:02:00,61.0,20.0,-100.00,WNW,293,6.0,15.0,20,0.00,,,0.00,,2013-05-29 08:02:00,
2013-05-29 02:11:00,61.0,20.0,-100.00,WNW,293,6.0,15.0,20,0.00,,,0.00,,2013-05-29 08:11:00,
2013-05-29 02:22:00,61.0,20.0,-100.00,WNW,293,6.0,15.0,20,0.00,,,0.00,,2013-05-29 08:22:00,
2013-05-29 02:32:00,61.0,20.0,-100.00,WNW,293,6.0,15.0,20,0.00,,,0.00,,2013-05-29 08:32:00,
2013-05-29 02:40:00,58.0,23.0,-100.00,NW,304,3.0,16.0,26,0.00,,,0.00,,2013-05-29 08:40:00,
2013-05-29 03:01:00,58.0,23.0,-100.00,NW,304,3.0,16.0,26,0.00,,,0.00,,2013-05-29 09:01:00,
2013-05-29 03:11:00,58.0,23.0,-100.00,NW,304,3.0,16.0,26,0.00,,,0.00,,2013-05-29 09:11:00,
2013-05-29 03:21:00,58.0,23.0,-100.00,NW,304,3.0,16.0,26,0.00,,,0.00,,2013-05-29 09:21:00,
2013-05-29 03:33:00,58.0,23.0,-100.00,NW,304,3.0,16.0,26,0.00,,,0.00,,2013-05-29 09:33:00,
2013-05-29 03:40:00,57.0,27.0,-100.00,NW,309,3.0,9.0,32,0.00,,,-99.99,,2013-05-29 09:40:00,
2013-05-29 04:03:00,57.0,27.0,-100.00,NW,309,3.0,9.0,32,0.00,,,-99.99,,2013-05-29 10:03:00,
2013-05-29 04:12:00,57.0,27.0,-100.00,NW,309,3.0,9.0,32,0.00,,,-99.99,,2013-05-29 10:12:00,
2013-05-29 04:22:00,57.0,27.0,-100.00,NW,309,3.0,9.0,32,0.00,,,-99.99,,2013-05-29 10:22:00,
2013-05-29 04:32:00,57.0,27.0,-100.00,NW,309,3.0,9.0,32,0.00,,,-99.99,,2013-05-29 10:32:00,
2013-05-29 04:40:00,57.0,30.0,-100.00,North,354,4.0,9.0,35,0.00,,,0.00,,2013-05-29 10:40:00,
2013-05-29 05:02:00,57.0,30.0,-100.00,North,354,4.0,9.0,35,0.00,,,0.00,,2013-05-29 11:02:00,
2013-05-29 05:12:00,57.0,30.0,-100.00,North,354,4.0,9.0,35,0.00,,,0.00,,2013-05-29 11:12:00,
2013-05-29 05:22:00,57.0,30.0,-100.00,North,354,4.0,9.0,35,0.00,,,0.00,,2013-05-29 11:22:00,
2013-05-29 05:32:00,57.0,30.0,-100.00,North,354,4.0,9.0,35,0.00,,,0.00,,2013-05-29 11:32:00,
2013-05-29 05:40:00,56.0,33.0,-100.00,North,355,6.0,12.0,41,0.00,,,0.00,,2013-05-29 11:40:00,
2013-05-29 06:01:00,56.0,33.0,-100.00,North,355,6.0,12.0,41,0.00,,,0.00,,2013-05-29 12:01:00,
2013-05-29 06:11:00,56.0,33.0,-100.00,North,355,6.0,12.0,41,0.00,,,0.00,,2013-05-29 12:11:00,
2013-05-29 06:22:00,56.0,33.0,-100.00,North,355,6.0,12.0,41,0.00,,,0.00,,2013-05-29 12:22:00,
2013-05-29 06:32:00,56.0,33.0,-100.00,North,355,6.0,12.0,41,0.00,,,0.00,,2013-05-29 12:32:00,
2013-05-29 06:40:00,55.0,33.0,-100.00,WNW,289,5.0,14.0,43,0.00,,,0.00,,2013-05-29 12:40:00,
2013-05-29 07:02:00,55.0,33.0,-100.00,WNW,289,5.0,14.0,43,0.00,,,0.00,,2013-05-29 13:02:00,
2013-05-29 07:11:00,55.0,33.0,-100.00,WNW,289,5.0,14.0,43,0.00,,,0.00,,2013-05-29 13:11:00,
2013-05-29 07:21:00,55.0,33.0,-100.00,WNW,289,5.0,14.0,43,0.00,,,0.00,,2013-05-29 13:21:00,
2013-05-29 07:32:00,55.0,33.0,-100.00,WNW,289,5.0,14.0,43,0.00,,,0.00,,2013-05-29 13:32:00,
2013-05-29 07:40:00,60.0,34.0,-100.00,NNW,345,3.0,9.0,38,0.00,,,0.00,,2013-05-29 13:40:00,
2013-05-29 08:02:00,60.0,34.0,-100.00,NNW,345,3.0,9.0,38,0.00,,,0.00,,2013-05-29 14:02:00,
2013-05-29 08:11:00,60.0,34.0,-100.00,NNW,345,3.0,9.0,38,0.00,,,0.00,,2013-05-29 14:11:00,
2013-05-29 08:21:00,60.0,34.0,-100.00,NNW,345,3.0,9.0,38,0.00,,,0.00,,2013-05-29 14:21:00,
2013-05-29 08:32:00,60.0,34.0,-100.00,NNW,345,3.0,9.0,38,0.00,,,0.00,,2013-05-29 14:32:00,
2013-05-29 08:40:00,63.0,35.0,-100.00,ESE,112,4.0,10.0,35,0.00,,,0.00,,2013-05-29 14:40:00,
2013-05-29 09:01:00,63.0,35.0,-100.00,ESE,112,4.0,10.0,35,0.00,,,0.00,,2013-05-29 15:01:00,
2013-05-29 09:11:00,63.0,35.0,-100.00,ESE,112,4.0,10.0,35,0.00,,,0.00,,2013-05-29 15:11:00,
2013-05-29 09:21:00,63.0,35.0,-100.00,ESE,112,4.0,10.0,35,0.00,,,0.00,,2013-05-29 15:21:00,
2013-05-29 09:33:00,63.0,35.0,-100.00,ESE,112,4.0,10.0,35,0.00,,,0.00,,2013-05-29 15:33:00,
2013-05-29 09:40:00,62.0,34.0,-100.00,ENE,73,4.0,10.0,35,0.00,,,0.00,,2013-05-29 15:40:00,
2013-05-29 10:03:00,62.0,34.0,-100.00,ENE,73,4.0,10.0,35,0.00,,,0.00,,2013-05-29 16:03:00,
2013-05-29 10:12:00,62.0,34.0,-100.00,ENE,73,4.0,10.0,35,0.00,,,0.00,,2013-05-29 16:12:00,
2013-05-29 10:22:00,62.0,34.0,-100.00,ENE,73,4.0,10.0,35,0.00,,,0.00,,2013-05-29 16:22:00,
2013-05-29 10:32:00,62.0,34.0,-100.00,ENE,73,4.0,10.0,35,0.00,,,0.00,,2013-05-29 16:32:00,
2013-05-29 10:40:00,65.0,34.0,-100.00,North,355,5.0,14.0,31,0.00,,,0.00,,2013-05-29 16:40:00,
2013-05-29 11:02:00,65.0,34.0,-100.00,North,355,5.0,14.0,31,0.00,,,0.00,,2013-05-29 17:02:00,
2013-05-29 11:12:00,65.0,34.0,-100.00,North,355,5.0,14.0,31,0.00,,,0.00,,2013-05-29 17:12:00,
2013-05-29 11:22:00,65.0,34.0,-100.00,North,355,5.0,14.0,31,0.00,,,0.00,,2013-05-29 17:22:00,
2013-05-29 11:32:00,65.0,34.0,-100.00,North,355,5.0,14.0,31,0.00,,,0.00,,2013-05-29 17:32:00,
2013-05-29 11:40:00,69.0,26.0,-100.00,West,270,7.0,16.0,20,0.00,,,0.00,,2013-05-29 17:40:00,
2013-05-29 12:01:00,69.0,26.0,-100.00,West,270,7.0,16.0,20,0.00,,,0.00,,2013-05-29 18:01:00,
2013-05-29 12:13:00,69.0,26.0,-100.00,West,270,7.0,16.0,20,0.00,,,0.00,,2013-05-29 18:13:00,
2013-05-29 12:22:00,69.0,26.0,-100.00,West,270,7.0,16.0,20,0.00,,,0.00,,2013-05-29 18:22:00,
2013-05-29 12:32:00,69.0,26.0,-100.00,West,270,7.0,16.0,20,0.00,,,0.00,,2013-05-29 18:32:00,
2013-05-29 12:40:00,71.0,23.0,-100.00,WSW,245,7.0,19.0,16,0.00,,,0.00,,2013-05-29 18:40:00,
2013-05-29 13:02:00,71.0,23.0,-100.00,WSW,245,7.0,19.0,16,0.00,,,0.00,,2013-05-29 19:02:00,
2013-05-29 13:11:00,71.0,23.0,-100.00,WSW,245,7.0,19.0,16,0.00,,,0.00,,2013-05-29 19:11:00,
2013-05-29 13:21:00,71.0,23.0,-100.00,WSW,245,7.0,19.0,16,0.00,,,0.00,,2013-05-29 19:21:00,
2013-05-29 13:32:00,71.0,23.0,-100.00,WSW,245,7.0,19.0,16,0.00,,,0.00,,2013-05-29 19:32:00,
2013-05-29 13:40:00,71.0,23.0,-100.00,WNW,293,5.0,18.0,16,0.00,,,0.00,,2013-05-29 19:40:00,
2013-05-29 14:03:00,71.0,23.0,-100.00,WNW,293,5.0,18.0,16,0.00,,,0.00,,2013-05-29 20:03:00,
2013-05-29 14:11:00,71.0,23.0,-100.00,WNW,293,5.0,18.0,16,0.00,,,0.00,,2013-05-29 20:11:00,
2013-05-29 14:22:00,71.0,23.0,-100.00,WNW,293,5.0,18.0,16,0.00,,,0.00,,2013-05-29 20:22:00,
2013-05-29 14:33:00,71.0,23.0,-100.00,WNW,293,5.0,18.0,16,0.00,,,0.00,,2013-05-29 20:33:00,
2013-05-29 14:40:00,73.0,19.0,-100.00,SW,224,10.0,21.0,13,0.00,,,0.00,,2013-05-29 20:40:00,
2013-05-29 15:02:00,73.0,19.0,-100.00,SW,224,10.0,21.0,13,0.00,,,0.00,,2013-05-29 21:02:00,
2013-05-29 15:12:00,73.0,19.0,-100.00,SW,224,10.0,21.0,13,0.00,,,0.00,,2013-05-29 21:12:00,
2013-05-29 15:22:00,73.0,19.0,-100.00,SW,224,10.0,21.0,13,0.00,,,0.00,,2013-05-29 21:22:00,
2013-05-29 15:33:00,73.0,19.0,-100.00,SW,224,10.0,21.0,13,0.00,,,0.00,,2013-05-29 21:33:00,
2013-05-29 15:40:00,73.0,17.0,-100.00,SW,234,10.0,19.0,12,0.00,,,0.00,,2013-05-29 21:40:00,
2013-05-29 16:03:00,73.0,17.0,-100.00,SW,234,10.0,19.0,12,0.00,,,0.00,,2013-05-29 22:03:00,
2013-05-29 16:12:00,73.0,17.0,-100.00,SW,234,10.0,19.0,12,0.00,,,0.00,,2013-05-29 22:12:00,
2013-05-29 16:23:00,73.0,17.0,-100.00,SW,234,10.0,19.0,12,0.00,,,0.00,,2013-05-29 22:23:00,
2013-05-29 16:33:00,73.0,17.0,-100.00,SW,234,10.0,19.0,12,0.00,,,0.00,,2013-05-29 22:33:00,
2013-05-29 16:40:00,73.0,13.0,-100.00,WSW,242,8.0,21.0,10,0.00,,,0.00,,2013-05-29 22:40:00,
2013-05-29 17:02:00,73.0,13.0,-100.00,WSW,242,8.0,21.0,10,0.00,,,0.00,,2013-05-29 23:02:00,
2013-05-29 17:12:00,73.0,13.0,-100.00,WSW,242,8.0,21.0,10,0.00,,,0.00,,2013-05-29 23:12:00,
2013-05-29 17:22:00,73.0,13.0,-100.00,WSW,242,8.0,21.0,10,0.00,,,0.00,,2013-05-29 23:22:00,
2013-05-29 17:33:00,73.0,13.0,-100.00,WSW,242,8.0,21.0,10,0.00,,,0.00,,2013-05-29 23:33:00,
2013-05-29 17:40:00,72.0,12.0,-100.00,WNW,297,7.0,22.0,10,0.00,,,0.00,,2013-05-29 23:40:00,
2013-05-29 18:01:00,72.0,12.0,-100.00,WNW,297,7.0,22.0,10,0.00,,,0.00,,2013-05-30 00:01:00,
2013-05-29 18:11:00,72.0,12.0,-100.00,WNW,297,7.0,22.0,10,0.00,,,0.00,,2013-05-30 00:11:00,
2013-05-29 18:21:00,72.0,12.0,-100.00,WNW,297,7.0,22.0,10,0.00,,,0.00,,2013-05-30 00:21:00,
2013-05-29 18:31:00,72.0,12.0,-100.00,WNW,297,7.0,22.0,10,0.00,,,0.00,,2013-05-30 00:31:00,
2013-05-29 18:40:00,69.0,12.0,-100.00,West,270,9.0,19.0,11,0.00,,,0.00,,2013-05-30 00:40:00,
2013-05-29 19:01:00,69.0,12.0,-100.00,West,270,9.0,19.0,11,0.00,,,0.00,,2013-05-30 01:01:00,
2013-05-29 19:11:00,69.0,12.0,-100.00,West,270,9.0,19.0,11,0.00,,,0.00,,2013-05-30 01:11:00,
2013-05-29 19:21:00,69.0,12.0,-100.00,West,270,9.0,19.0,11,0.00,,,0.00,,2013-05-30 01:21:00,
2013-05-29 19:32:00,69.0,12.0,-100.00,West,270,9.0,19.0,11,0.00,,,0.00,,2013-05-30 01:32:00,
2013-05-29 19:40:00,66.0,10.0,-100.00,West,278,8.0,20.0,11,0.00,,,0.00,,2013-05-30 01:40:00,
2013-05-29 20:01:00,66.0,10.0,-100.00,West,278,8.0,20.0,11,0.00,,,0.00,,2013-05-30 02:01:00,
2013-05-29 20:11:00,66.0,10.0,-100.00,West,278,8.0,20.0,11,0.00,,,0.00,,2013-05-30 02:11:00,
2013-05-29 20:21:00,66.0,10.0,-100.00,West,278,8.0,20.0,11,0.00,,,0.00,,2013-05-30 02:21:00,
2013-05-29 20:32:00,66.0,10.0,-100.00,West,278,8.0,20.0,11,0.00,,,0.00,,2013-05-30 02:32:00,
2013-05-29 20:40:00,63.0,10.0,-100.00,West,281,5.0,17.0,12,0.00,,,0.00,,2013-05-30 02:40:00,
2013-05-29 21:02:00,63.0,10.0,-100.00,West,281,5.0,17.0,12,0.00,,,0.00,,2013-05-30 03:02:00,
2013-05-29 21:11:00,63.0,10.0,-100.00,West,281,5.0,17.0,12,0.00,,,0.00,,2013-05-30 03:11:00,
2013-05-29 21:21:00,63.0,10.0,-100.00,West,281,5.0,17.0,12,0.00,,,0.00,,2013-05-30 03:21:00,
2013-05-29 21:33:00,63.0,10.0,-100.00,West,281,5.0,17.0,12,0.00,,,0.00,,2013-05-30 03:33:00,
2013-05-29 21:40:00,61.0,10.0,-100.00,WNW,303,5.0,14.0,13,0.00,,,0.00,,2013-05-30 03:40:00,
2013-05-29 22:03:00,61.0,10.0,-100.00,WNW,303,5.0,14.0,13,0.00,,,0.00,,2013-05-30 04:03:00,
2013-05-29 22:13:00,61.0,10.0,-100.00,WNW,303,5.0,14.0,13,0.00,,,0.00,,2013-05-30 04:13:00,
2013-05-29 22:23:00,61.0,10.0,-100.00,WNW,303,5.0,14.0,13,0.00,,,0.00,,2013-05-30 04:23:00,
2013-05-29 22:33:00,61.0,10.0,-100.00,WNW,303,5.0,14.0,13,0.00,,,0.00,,2013-05-30 04:33:00,
2013-05-29 22:40:00,60.0,14.0,-100.00,WNW,296,6.0,21.0,16,0.00,,,0.00,,2013-05-30 04:40:00,
2013-05-29 23:02:00,60.0,14.0,-100.00,WNW,296,6.0,21.0,16,0.00,,,0.00,,2013-05-30 05:02:00,
2013-05-29 23:12:00,60.0,14.0,-100.00,WNW,296,6.0,21.0,16,0.00,,,0.00,,2013-05-30 05:12:00,
2013-05-29 23:22:00,60.0,14.0,-100.00,WNW,296,6.0,21.0,16,0.00,,,0.00,,2013-05-30 05:22:00,
2013-05-29 23:32:00,60.0,14.0,-100.00,WNW,296,6.0,21.0,16,0.00,,,0.00,,2013-05-30 05:32:00,
2013-05-29 23:40:00,58.0,13.0,-100.00,NW,320,6.0,18.0,17,0.00,,,0.00,,2013-05-30 05:40:00,